Location: Chuathbaluk
(61.5726°N, 159.2454°W)
Time: 15:42:52
(UTC+00:00)

S-56A Canister/Altair - Pass Details

Date: 05 December 2020
Orbit: 633 x 2499 km, 38.9° (Epoch: 15 January)

Event Time Altitude Azimuth Distance (km) Brightness Sun altitude
Rises 08:27:46 0° 255° (WSW) 5,272 12.0 -45.8°
Enters shadow 08:33:21 - 234° (SW) 3,991 11.2 -46.2°
Reaches altitude 10° 08:34:42 10° 227° (SW) 3,748 - -46.3°
Maximum altitude 08:37:21 11° 211° (SSW) 3,412 - -46.5°
Drops below altitude 10° 08:39:46 10° 194° (SSW) 3,319 - -46.7°
Sets 08:44:45 0° 162° (SSE) 3,845 - -47.1°
